Flag for U.S.A. Weather past 2 weeks in Hartford, Connecticut, U.S.A.

Now
29 °F

Overcast.


Feels Like: 29 °F
Forecast: 18 / 34 °F
Wind: No wind

Location: Hartford-Brainard Airport

Current Time: Jan 29, 2015 at 10:42:07 PM

Latest Report: Jan 29, 2015 at 9:53 PM


Visibility: 10 mi

Pressure: 30.07 "Hg

Humidity: 75%

Dew point: 22 °F

Location of HartfordLocation

Historic Weather in Hartford — Graph

°F

Hartford temperature yesterday

Maximum temperature yesterday: 27 °F (at 3:53 PM)
Minimum temperature yesterday: 13 °F (at 12:53 AM)
Average temperature yesterday: 19 °F

Past Weeks' High & Low Weather Summary

 TemperatureHumidityPressure
High41 °F (Jan 18, 6:53 PM)100% (Jan 18, 7:53 PM)30.42 "Hg (Jan 18, 7:53 PM)
Low1 °F (Jan 29, 6:53 AM)25% (Jan 17, 1:53 PM)29.23 "Hg (Jan 24, 3:53 PM)
Average26 °F63%29.97 "Hg
* Reported Jan 14 8:53 PM — Jan 29 8:53 PM, Hartford, Weather by CustomWeather, © 2014

Note: Actual official high and low records may vary slightly from our data, if they occured in-between our weather recording intervals... More about our weather records

Advertising

Hartford weather history for previous 24 hours

 ConditionsComfort  
Time TempWeatherWind HumidityBarometerVisibility
8:53 PM
Jan 29
29 °FOvercast.5 mph75%30.09 "Hg10 mi
7:53 PM29 °FMostly cloudy.6 mph72%30.11 "Hg10 mi
6:53 PM29 °FOvercast.7 mph64%30.13 "Hg10 mi
5:53 PM30 °FOvercast.6 mph51%30.14 "Hg10 mi
4:53 PM30 °FScattered clouds.6 mph40%30.16 "Hg10 mi
3:53 PM30 °FSunny.No wind36%30.17 "Hg10 mi
2:53 PM30 °FSunny.6 mph31%30.19 "Hg10 mi
1:53 PM28 °FSunny.5 mph34%30.21 "Hg10 mi
12:53 PM24 °FSunny.No wind38%30.25 "Hg10 mi
11:53 AM21 °FSunny.6 mph43%30.29 "Hg10 mi
10:53 AM17 °FSunny.6 mph49%30.32 "Hg10 mi
9:53 AM14 °FSunny.No wind64%30.35 "Hg10 mi
8:53 AM8 °FSunny.5 mph95%30.36 "Hg8 mi
7:53 AM2 °FSunny.6 mph92%30.35 "Hg7 mi
6:53 AM1 °FPassing clouds.6 mph83%30.34 "Hg8 mi
6:03 AM2 °FPassing clouds.N/A83%30.34 "Hg8 mi
5:53 AM2 °FClear.No wind83%30.33 "Hg8 mi
4:53 AM4 °FClear.No wind80%30.32 "Hg6 mi
3:53 AM3 °FClear.3 mph84%30.32 "Hg7 mi
2:53 AM5 °FClear.No wind87%30.31 "Hg9 mi
1:53 AM16 °FClear.6 mph49%30.30 "Hg10 mi
12:53 AM15 °FClear.3 mph56%30.28 "Hg10 mi
11:53 PM
Jan 28
16 °FClear.6 mph56%30.27 "Hg10 mi
10:53 PM18 °FClear.5 mph52%30.26 "Hg10 mi
Weather by CustomWeather, © 2014

See weather overviewHow to use our weather pages